Location: Newark
(48.6676°N, 6.1917°E)
Time: 02:01:36
(UTC+00:00)

N. Korean satellite - Pass Details

Date: 15 December 2019
Orbit: 454 x 507 km, 97.2° (Epoch: 23 January)

Event Time Altitude Azimuth Distance (km) Brightness Sun altitude
Rises 05:58:58 0° 7° (N) 2,539 10.1 -12.7°
Reaches altitude 10° 06:01:06 10° 1° (N) 1,646 9.0 -12.4°
Maximum altitude 06:04:28 45° 288° (WNW) 652 6.7 -11.9°
Drops below altitude 10° 06:07:46 10° 215° (SW) 1,608 9.1 -11.4°
Sets 06:09:50 0° 209° (SSW) 2,471 10.1 -11.1°
